Find Molniya-3

NORAD ID: 11057 Int'l Des: 1978-095 Owner: NPOPM/MSVYAZ Country: SU operational
MEOELLIPTICALHEO_ELLIPTICALMOLNIYA_TYPE

当前视图

正在加载3D地球...

关于 Molniya-3

正在加载描述...

即将过境

Passes for default location (London). Set your location on the main map for personalized predictions.

高度历史

Loading altitude history...

两行轨道根数

1 11057U 78095A 26148.19457045 .00000059 00000-0 39962-2 0 9994
2 11057 63.6944 254.2688 5564275 312.8176 12.1606 4.09913081442781
Epoch: May 28, 2026 • Age: 45 hours

当前状态

高度 11962.4 km
速度 4.39 km/s
星下点 0.06°N, 153.47°E
发射日期 Oct 13, 1978
运行时间 47.6 years
类型 other

技术详情

分类 Payload
质量 1750.00 kg
干质量 1700.00 kg
总质量 1750.00 kg
长度 3.60 m
直径 1.60 m
跨度 8.10 m
形状 Cyl + 6 Pan
制造商 NPOPM
平台类型 Molniya-3
阶段状态 In Orbit
所有者/国家 NPOPM/MSVYAZ/SU

Most Searched